Wind_Speed
13 13 12 12 11 11 11 10 11 11 12 13 14 16 18 21 20 13 12 5 2 4 5 10 9 7 9 5 6 4 3 8 12 11 8 7 9 8 7 9 10 2 15 22 28
13 14 13 13 13 12 12 11 11 11 12 12 13 15 17 21 20 17 3 9 8 6 9 11 11 5 10 3 1 7 2 12 12 15 10 4 9 8 7 8 10 8 22 27 27
13 14 14 14 13 13 13 12 11 11 11 12 13 14 15 17 13 3 4 3 6 8 12 13 12 10 6 6 3 2 8 8 14 10 8 7 8 5 11 6 13 14 20 21 23
14 14 14 14 14 13 13 13 11 10 10 10 11 13 15 9 5 8 6 3 3 8 12 14 12 12 5 9 7 6 7 8 7 7 8 8 6 4 10 2 15 15 19 20 20
14 14 14 15 15 14 13 13 11 10 9 8 10 12 10 10 10 7 1 3 5 9 15 7 12 6 7 4 10 1 10 5 7 6 10 8 6 5 12 6 15 16 17 18 18
14 15 15 15 15 15 14 12 11 9 8 7 7 8 9 14 1 4 5 6 8 9 10 9 6 8 10 2 7 3 7 8 9 9 6 9 5 8 10 12 15 15 16 16 17
15 15 15 16 16 15 14 12 9 8 6 6 5 6 11 14 1 6 8 9 6 7 11 2 6 12 7 6 2 9 11 8 8 8 14 23 5 9 11 13 15 16 14 16 17
15 15 15 17 17 16 13 11 7 7 5 4 4 7 11 2 9 11 12 13 13 11 11 10 8 12 11 10 8 10 10 14 3 5 22 20 12 11 13 13 14 15 14 14 15
15 15 17 18 17 16 13 8 4 3 4 3 6 9 13 4 12 14 14 14 12 10 9 9 12 14 9 13 9 5 6 19 12 7 2 13 18 13 13 13 13 13 14 14 13
17 17 17 18 17 16 8 3 4 3 3 6 11 8 10 12 13 10 14 12 10 11 11 12 13 15 13 5 1 11 19 4 3 6 3 5 8 14 12 13 13 13 15 15 15
17 17 18 17 17 15 3 4 5 7 15 15 4 13 3 5 7 15 16 16 14 12 16 16 16 15 11 11 13 15 25 15 7 11 3 7 4 17 15 13 14 15 16 17 16
18 18 18 16 16 10 4 7 9 7 8 21 17 12 2 3 8 14 18 17 16 16 19 17 16 7 13 10 11 10 5 10 14 4 5 5 5 7 17 16 15 14 14 16 16
20 20 18 15 12 4 11 10 4 7 7 14 16 18 13 13 14 18 17 21 18 20 23 21 13 16 7 9 11 11 8 11 16 12 7 10 11 13 14 16 14 15 15 16 16
22 21 17 12 4 2 9 8 5 5 6 15 12 10 12 12 18 16 23 21 21 20 24 17 9 12 11 12 13 4 18 10 5 3 5 14 5 18 14 16 16 16 17 16 16
27 23 17 8 12 9 4 2 6 7 6 12 12 7 14 19 9 19 15 23 23 21 17 22 15 15 11 18 8 12 13 10 12 11 11 3 2 13 10 18 18 17 19 18 17
30 24 15 3 8 9 3 4 6 7 5 9 9 12 16 21 17 16 16 19 16 19 21 22 13 19 16 19 14 7 10 13 13 13 4 11 16 16 5 4 6 6 16 19 18
33 23 12 7 1 4 6 7 7 10 6 9 11 16 19 18 20 13 18 21 18 19 20 20 18 24 12 11 15 11 16 10 6 10 5 7 9 7 4 8 7 5 5 13 18
26 8 6 12 5 6 9 9 10 4 5 5 3 13 16 19 20 16 18 18 24 23 14 17 18 25 16 17 11 11 15 7 0 5 2 21 4 12 13 11 8 6 5 4 11
9 4 9 6 12 8 8 11 13 5 2 5 10 10 14 17 15 15 19 18 21 23 21 16 18 19 20 16 19 14 16 15 14 14 15 10 5 6 13 12 10 10 8 5 3
6 9 8 7 11 10 9 17 7 4 5 9 12 13 14 18 16 17 16 15 18 22 20 19 14 19 23 17 15 15 13 14 6 4 7 7 7 9 14 11 11 11 11 10 10
7 6 6 9 11 8 11 17 7 7 6 7 7 5 13 14 18 15 15 10 17 17 20 21 12 16 13 16 15 11 14 16 16 6 7 11 11 20 13 12 12 12 12 12 11
10 6 9 15 8 11 13 18 5 8 9 7 6 13 11 8 17 17 15 13 13 16 20 19 8 11 16 14 19 18 14 18 12 14 10 9 10 10 13 10 10 13 12 12 11
5 5 9 14 8 12 17 10 7 11 8 7 9 9 10 7 9 13 8 10 11 18 17 15 10 12 15 17 11 10 20 14 15 14 7 8 2 10 13 13 12 12 12 10 10
5 6 6 8 13 15 11 12 15 12 14 9 9 6 9 13 7 5 12 10 8 16 6 15 17 16 11 15 15 19 19 17 14 11 7 6 7 23 10 13 14 12 12 12 10
5 5 4 7 12 14 14 6 12 11 12 10 12 14 11 11 14 12 9 12 10 7 8 16 19 19 14 4 8 6 17 13 11 14 9 16 28 31 16 15 15 14 13 12 12
6 4 4 11 2 9 6 11 13 11 12 13 13 15 15 13 13 12 14 10 15 15 14 17 18 17 20 12 11 10 10 11 11 12 11 8 12 15 15 14 13 13 13 13 12
8 8 5 7 13 10 11 13 9 7 11 14 10 14 7 13 12 12 14 11 13 13 17 20 16 16 19 17 11 15 15 13 10 8 6 9 9 7 13 14 14 14 13 13 13
Wind_Direction
355 353 348 341 333 327 322 319 322 322 324 332 332 330 329 325 320 287 267 360 296 258 241 271 246 257 244 225 251 229 303 59 67 70 121 164 117 65 87 129 57 64 135 139 148
352 348 346 341 335 326 322 318 312 316 318 328 327 325 325 324 313 273 298 280 257 236 245 267 304 305 239 170 242 288 327 70 27 59 97 125 115 142 115 124 104 108 115 143 157
348 346 345 340 336 326 319 313 305 307 315 323 323 321 317 321 277 103 125 282 202 219 257 278 287 259 246 236 138 15 68 76 62 47 85 102 118 185 140 111 132 140 145 155 162
344 343 344 338 333 326 320 312 303 305 308 316 318 317 311 295 239 100 86 25 201 233 261 260 259 252 208 188 138 115 71 61 87 102 113 89 134 129 105 98 109 138 154 162 168
342 340 339 338 331 326 320 310 300 298 300 311 316 321 322 231 249 150 269 288 227 238 247 285 278 270 259 116 162 34 101 95 110 123 97 128 67 134 105 125 117 139 153 165 175
339 338 337 335 332 326 319 309 297 289 291 302 311 314 258 259 83 190 250 260 244 243 257 256 341 338 303 232 118 101 102 137 159 129 131 107 125 155 124 154 130 147 157 168 181
338 337 332 331 328 324 320 308 289 278 279 290 301 309 266 250 267 232 243 247 261 267 284 287 315 279 277 206 136 144 174 170 150 161 93 43 210 94 134 142 147 161 169 165 175
339 335 332 329 327 327 325 305 284 275 272 272 270 266 271 330 252 245 240 247 239 246 256 282 286 273 273 173 216 221 231 51 154 169 120 125 131 134 151 158 165 169 168 168 175
339 338 333 330 328 328 323 305 288 266 245 232 251 234 266 159 224 222 225 236 220 229 240 272 265 256 199 233 237 159 40 272 149 156 131 187 114 141 163 170 170 177 172 182 184
340 334 332 330 329 329 321 292 253 188 222 242 261 264 243 226 190 209 211 232 239 224 218 231 236 233 230 265 119 269 174 272 130 163 176 233 128 149 174 178 173 178 174 189 192
336 330 330 327 328 323 288 254 212 202 210 234 231 230 133 207 215 223 208 207 229 238 222 207 240 231 51 72 221 223 256 194 179 109 240 230 239 151 178 193 176 182 179 186 199
337 331 328 329 322 307 240 250 33 340 280 219 248 238 236 254 225 219 195 205 208 218 222 225 239 321 177 209 278 242 258 28 1 96 252 263 243 167 169 194 182 193 186 192 198
339 334 326 331 318 254 232 256 308 323 259 219 211 227 217 212 238 197 199 211 207 216 230 227 214 169 216 235 247 242 113 108 249 241 225 312 346 315 175 184 194 186 197 201 196
341 334 326 333 290 275 236 219 248 296 268 168 198 224 202 206 225 248 192 217 229 225 230 234 174 243 220 256 265 36 309 283 252 261 121 272 165 271 191 177 188 199 195 203 196
339 330 321 307 307 239 41 214 272 222 258 144 133 110 190 204 119 196 215 220 226 222 233 228 186 231 221 242 311 151 215 286 301 276 155 236 118 199 203 175 177 202 201 205 199
335 324 319 285 230 249 256 275 222 230 245 153 151 189 193 204 222 161 198 229 226 234 230 253 227 201 244 232 192 317 266 247 249 244 256 226 219 79 257 35 113 197 200 201 197
330 312 280 259 250 207 229 219 219 245 98 154 185 172 195 191 214 176 195 201 214 221 220 220 238 269 204 220 257 244 257 260 286 243 345 210 276 113 164 98 102 147 185 205 192
326 287 268 211 246 229 223 223 253 219 189 84 216 184 200 185 212 195 197 201 217 219 222 218 214 223 211 246 234 254 269 279 157 322 202 288 250 123 122 114 112 126 149 211 220
322 250 220 241 207 213 227 226 226 239 31 241 173 207 201 185 210 202 209 213 205 224 227 224 227 212 219 200 243 227 251 252 174 247 253 178 329 226 123 123 125 115 119 115 152
293 217 158 176 180 212 235 253 307 325 336 237 226 209 190 197 201 198 196 221 225 208 237 238 237 223 206 223 232 245 244 292 242 241 314 18 355 290 173 135 129 128 117 107 100
245 224 123 168 177 223 231 235 225 189 230 261 259 203 253 190 200 201 228 211 224 195 227 251 245 204 191 205 218 211 235 259 221 193 254 250 215 239 150 159 144 131 130 129 129
279 239 147 163 199 221 231 254 57 262 195 257 290 295 256 196 196 236 208 234 192 220 207 233 226 229 202 208 220 238 254 239 243 228 264 309 116 82 85 126 135 121 127 123 126
257 113 164 201 227 221 226 261 238 245 226 232 235 242 244 248 208 229 224 212 185 227 200 219 245 230 191 200 207 217 232 253 268 278 230 182 71 131 139 130 132 133 129 131 130
272 196 152 210 263 289 247 210 234 212 261 263 265 262 223 250 219 225 231 177 180 211 220 216 238 253 191 205 202 203 233 269 251 267 280 69 358 310 148 145 144 142 143 143 148
243 296 47 191 224 235 263 250 228 232 203 219 235 247 234 232 222 214 238 198 184 191 210 225 239 250 263 66 215 184 262 226 237 281 296 158 220 215 164 163 153 152 153 153 154
306 339 348 278 296 230 193 244 249 246 243 207 235 216 234 253 259 211 215 221 195 201 212 219 242 240 255 217 218 248 253 244 223 250 287 321 289 95 123 141 152 160 158 158 157
6 275 272 277 255 213 232 211 260 256 269 246 238 248 237 247 279 314 313 281 209 194 205 226 228 232 243 231 228 228 249 246 238 238 276 295 67 94 129 151 165 163 165 160 158
Height
789 787 785 784 782 781 779 778 777 776 774 773 771 767 764 760 756 753 744 746 746 745 745 740 737 731 728 720 719 718 750 756 751 751 754 740 748 743 742 752 753 754 757 766 777
789 787 785 783 781 780 778 777 776 775 774 772 770 767 764 759 755 746 745 744 744 744 744 734 726 724 719 718 718 722 750 747 730 730 745 741 742 746 755 756 760 760 760 770 777
789 786 784 782 780 779 777 776 775 774 773 772 769 767 764 760 752 736 742 743 743 743 742 736 728 722 719 715 720 723 743 729 732 732 733 744 746 737 749 770 751 766 767 771 777
788 786 784 782 780 778 777 775 774 773 772 771 770 767 762 761 760 738 741 743 742 742 740 730 722 720 720 727 717 736 729 726 732 733 738 745 744 745 751 752 744 758 765 771 776
788 786 784 781 779 777 775 774 772 772 771 770 768 765 761 752 742 740 742 742 742 740 734 725 722 720 727 719 718 728 731 728 729 731 735 740 749 749 754 752 748 758 765 770 774
788 785 783 780 777 775 774 772 771 770 770 769 768 766 763 758 737 740 741 740 738 735 727 724 721 718 718 719 730 718 723 728 726 733 736 746 752 742 751 746 753 759 763 768 771
786 784 782 779 776 774 772 770 769 769 769 768 767 766 757 744 739 739 740 737 735 734 727 723 723 721 711 721 710 718 735 732 732 730 742 759 757 757 748 747 754 757 760 763 768
786 783 780 778 775 772 770 768 768 768 768 767 767 767 753 737 739 739 737 734 733 732 730 727 724 720 717 718 718 731 725 804 739 734 756 791 773 754 747 750 755 754 758 763 766
786 783 780 777 774 771 768 767 766 766 766 767 766 761 747 737 736 734 733 730 728 728 728 728 724 719 715 730 740 731 824 785 745 728 732 751 747 747 743 747 752 753 756 761 763
785 782 778 776 773 770 767 766 766 765 766 767 764 761 738 732 728 731 731 730 726 725 728 727 724 728 722 735 782 764 795 749 743 738 733 735 738 741 742 742 747 750 752 758 759
784 780 777 774 771 769 768 767 764 760 758 740 732 733 730 731 734 732 729 730 726 727 742 726 737 739 747 760 745 753 751 738 727 719 734 735 733 731 737 739 743 746 748 752 752
782 778 775 773 770 768 766 758 749 753 746 735 733 731 731 733 731 723 725 732 733 745 729 732 743 720 726 725 730 727 733 744 734 722 731 730 731 721 728 735 735 742 745 744 746
780 776 773 771 767 766 763 754 755 753 746 723 724 727 728 731 731 723 722 723 730 739 731 739 726 720 725 731 737 728 740 772 770 729 723 734 749 743 721 725 729 733 734 735 740
778 774 772 769 770 762 757 755 756 755 752 731 730 723 722 725 732 714 715 720 725 736 727 727 715 731 733 737 727 752 733 733 738 744 797 767 829 779 725 729 728 728 730 731 733
776 772 769 769 766 758 756 756 755 754 766 721 721 716 714 726 708 718 713 716 731 729 724 732 727 738 737 734 723 759 732 733 729 737 755 760 770 744 719 727 725 723 721 723 725
773 769 766 767 765 758 757 756 754 764 758 725 713 724 724 721 714 706 718 713 713 724 720 719 702 716 723 715 723 717 730 728 726 731 759 750 751 748 772 724 721 713 712 714 720
768 763 762 764 754 757 757 753 760 754 709 723 722 715 721 724 720 720 729 734 738 751 745 731 728 719 711 733 723 727 737 760 777 760 779 731 739 751 723 716 715 719 712 709 712
761 757 757 757 757 758 756 754 763 718 715 703 708 710 723 713 716 718 725 733 721 723 731 746 755 727 711 724 734 728 730 755 799 787 818 747 749 733 709 709 711 713 713 715 711
758 756 756 752 755 757 750 754 734 715 705 714 712 722 720 709 713 716 720 723 714 713 737 735 739 701 706 707 717 738 745 713 776 791 773 755 739 712 710 715 716 720 722 723 718
759 750 746 751 754 754 749 745 716 710 713 714 722 711 723 715 722 718 719 707 710 702 699 711 735 704 702 703 705 719 723 749 729 777 784 754 764 752 728 727 724 726 728 730 732
758 740 745 750 753 748 747 727 714 710 714 717 711 713 705 709 713 713 716 705 700 703 702 702 713 715 707 720 728 729 735 726 736 747 781 778 760 741 720 721 725 725 728 734 737
746 737 745 748 751 735 733 716 729 710 710 714 711 707 704 697 710 713 714 704 691 694 716 702 708 726 722 703 701 705 719 716 735 746 729 731 751 703 709 716 722 727 730 735 740
739 728 744 744 742 726 718 713 715 715 712 713 714 705 698 703 719 705 701 685 689 699 709 705 720 732 726 714 703 717 713 706 704 705 730 763 748 698 708 721 726 735 737 742 745
743 732 735 739 725 722 715 720 721 709 712 705 709 702 708 708 698 707 702 691 690 694 700 700 708 714 730 719 704 723 713 707 705 725 719 772 776 741 724 729 731 738 740 744 748
737 721 716 730 726 719 713 712 717 718 708 705 715 713 710 717 709 711 699 695 696 701 700 704 724 709 699 701 704 717 709 706 714 710 729 749 758 747 721 725 728 733 738 744 748
741 734 722 717 711 715 726 723 720 712 707 713 718 702 704 709 699 705 698 695 702 698 707 699 724 711 715 700 704 715 704 703 703 705 707 711 715 692 703 716 728 734 738 743 747
748 742 740 720 713 718 713 713 713 708 703 700 698 703 706 700 687 682 677 673 679 690 704 707 712 721 732 706 709 731 709 701 699 699 703 722 713 703 712 721 727 731 736 741 744